[[{"header":{"parameterUnit":"m.s-1","parameterCategory":1,"la1":30.2991,"la2":30.254,"lo1":-89.0895,"lo2":-89.0444,"dy":0.0017,"dx":0.0017,"nx":28,"ny":28,"refTime":"2025-08-08T21:00:00:Z","depth":0,"parameterNumber":2,"parameterNumberName":"U-component_of_WINDS"},"data":[0,0,0,0,0,0,0,0,0,0,0,0,0,0,0,0,0,0,0,0,0,0,0,0,0,0,0,0,0,0,0,0,0,0,0,0,0,0,0,0,0,0,0,0,0,0,0,0,0,0,0,0,0,0,0,0,0,0,-4.5992,-4.5994,0,-4.6109,-4.611,-4.6112,-4.6048,-4.6044,-4.6041,-4.6038,-4.6157,-4.6163,-4.6169,0,0,0,0,0,0,0,0,0,0,0,0,0,-4.5715,-4.5721,-4.5992,-4.5994,-4.5995,-4.6109,-4.611,-4.6112,-4.6048,-4.6044,-4.604,-4.6037,-4.6155,-4.6163,-4.617,0,0,0,0,0,0,0,0,0,0,0,0,0,-4.5834,-4.5723,-4.5992,-4.5977,-4.5977,-4.6108,-4.611,-4.6112,-4.6049,-4.6044,-4.6039,-4.6035,-4.6153,-4.6162,-4.6171,-4.6324,0,0,-4.6199,-4.6203,0,0,0,0,0,0,0,0,-4.5828,-4.5844,-4.5978,-4.5978,-4.5978,-4.6059,-4.6056,-4.6183,-4.605,-4.6022,-4.6038,-4.6033,-4.6128,-4.6139,-4.6172,-4.6329,-4.6334,-4.62,-4.6205,-4.6209,-4.6212,0,0,0,0,0,0,0,-4.5819,-4.5839,-4.6038,-4.598,-4.598,-4.5965,-4.5976,-4.608,-4.61,-4.6024,-4.6019,-4.6034,-4.6128,-4.6163,-4.6174,-4.6336,-4.62,-4.6208,-4.6214,-4.6217,-4.6626,-4.6631,0,0,0,0,0,0,-4.5812,-4.5833,-4.6035,-4.6042,-4.589,-4.5974,-4.5987,-4.6038,-4.6099,-4.6104,-4.6038,-4.6031,-4.615,-4.6163,-4.6178,-4.6361,-4.6209,-4.6218,-4.6223,-4.6621,-4.6627,-4.6633,0,0,0,0,0,0,-4.5806,-4.5831,-4.603,-4.5936,-4.596,-4.5984,-4.6042,-4.6043,-4.6078,-4.611,-4.6113,-4.607,-4.6146,-4.6165,-4.6288,-4.6364,-4.6222,-4.6231,-4.6614,-4.6623,-4.663,-4.6727,0,0,0,0,0,0,-4.5799,-4.5829,-4.5887,-4.5938,-4.5966,-4.6138,-4.6046,-4.6048,-4.6094,-4.6085,-4.6141,-4.6146,-4.6144,-4.6275,-4.6297,-4.6374,-4.6238,-4.6608,-4.6618,-4.6627,-4.6717,-4.6737,-4.6755,0,0,0,0,0,-4.5789,-4.5909,-4.589,-4.5915,-4.6038,-4.6142,-4.6158,-4.6154,-4.61,-4.6159,-4.618,-4.6144,-4.6353,-4.6288,-4.6313,-4.6393,-4.6603,-4.6615,-4.6627,-4.6709,-4.6733,-4.6754,0,0,0,0,0,0,-4.5865,-4.5915,-4.5895,-4.6035,-4.6085,-4.6131,-4.6204,-4.618,-4.6246,-4.6235,-4.6227,-4.624,-4.6369,-4.6394,-4.6321,-4.6545,-4.6469,-4.6487,-4.6523,-4.6547,-4.6565,-4.6556,-4.6245,0,0,0,0,0,-4.5899,-4.5979,-4.6018,-4.6138,-4.6165,-4.6181,-4.6226,-4.6219,-4.627,-4.6291,-4.632,-4.6372,-4.6449,-4.65,-4.6573,-4.6722,-4.6733,-4.679,-4.6808,-4.6824,-4.6838,-4.6919,-4.6945,-4.6672,-4.6672,-4.6672,0,0,-4.5968,-4.6005,-4.6056,-4.6155,-4.6193,-4.6276,-4.6199,-4.629,-4.6352,-4.6304,-4.6422,-4.6447,-4.6504,-4.6641,-4.6702,-4.6665,-4.6917,-4.6839,-4.6851,-4.6857,-4.6934,-4.696,-4.6983,-4.668,-4.6679,-4.6678,0,0,-4.6136,-4.6173,-4.6277,-4.6317,-4.6376,-4.6386,-4.6411,-4.6462,-4.6477,-4.6595,-4.6562,-4.6636,-4.6769,-4.6811,-4.685,-4.7038,-4.7007,-4.7062,-4.7159,-4.7238,-4.726,-4.7279,-4.7345,-4.7369,-4.7077,-4.7077,-4.7077,0,-4.6214,-4.6338,-4.6333,-4.6428,-4.6472,-4.6435,-4.654,-4.658,-4.6659,-4.6691,-4.6649,-4.6816,-4.6852,-4.6998,-4.7044,-4.7077,-4.7106,-4.7054,-4.7257,-4.7276,-4.7294,-4.7357,-4.7382,-4.7083,-4.7083,-4.7082,-4.7081,0,-4.6431,-4.6518,-4.6595,-4.6674,-4.6727,-4.6827,-4.6838,-4.6893,-4.6882,-4.6897,-4.7019,-4.7062,-4.7142,-4.7177,-4.7167,-4.7323,-4.7298,-4.7258,-4.7181,-4.7326,-4.7385,-4.7409,-4.7092,-4.709,-4.7088,-4.7086,0,0,-4.6647,-4.6724,-4.6752,-4.6787,-4.6851,-4.6918,-4.7017,-4.7097,-4.7144,-4.7202,-4.7284,-4.7399,-4.7362,-4.7406,-4.7401,-4.7472,-4.7617,-4.7422,-4.7423,-4.7455,-4.7792,-4.7821,-4.7849,-4.7599,-4.7604,-4.7607,-4.7786,0,-4.6818,-4.699,-4.699,-4.7149,-4.723,-4.7197,-4.7283,-4.7332,-4.735,-4.7421,-4.7441,-4.7522,-4.7467,-4.7494,-4.7562,-4.7585,-4.7684,-4.7573,-4.7675,-4.7679,-4.7659,-4.788,-4.7911,-4.8077,-4.781,-4.7814,-4.7816,0,-4.704,-4.7105,-4.7273,-4.7326,-4.736,-4.7437,-4.7511,-4.758,-4.7635,-4.7643,-4.7695,-4.768,-4.7781,-4.7704,-4.7843,-4.7767,-4.781,-4.7828,-4.7835,-4.7842,-4.7755,-4.7892,-4.8131,-4.8155,-4.7853,-4.785,-4.7847,0,-4.7179,-4.7309,-4.7426,-4.7458,-4.7523,-4.7579,-4.7609,-4.7659,-4.7708,-4.7773,-4.7805,-4.7881,-4.7923,-4.7982,-4.7989,-4.7932,-4.813,-4.8053,-4.8139,-4.8139,-4.818,-4.8177,-4.8427,-4.8211,-4.821,-4.821,-4.8209,0,-4.7369,-4.7473,-4.749,-4.7561,-4.7677,-4.7677,-4.7791,-4.7816,-4.7863,-4.7939,-4.7916,-4.7989,-4.7994,-4.8069,-4.8075,-4.819,-4.8209,-4.8218,-4.8218,-4.8219,-4.8218,-4.8245,-4.8233,-4.8217,-4.8215,-4.8214,-4.8213,0,-4.7543,-4.7559,-4.7684,-4.7737,-4.7752,-4.7835,-4.788,-4.7949,-4.7966,-4.8063,-4.8086,-4.8113,-4.82,-4.8213,-4.8315,-4.8319,-4.8457,-4.8446,-4.8438,-4.8435,-4.852,-4.8512,-4.8795,-4.8832,-4.8594,-4.8596,-4.8598,0,-4.7662,-4.7741,-4.7802,-4.7852,-4.7885,-4.7966,-4.8016,-4.802,-4.8073,-4.8143,-4.8204,-4.8289,-4.8357,-4.8498,-4.8526,-4.8605,-4.8594,-4.8689,-4.8606,-4.8605,-4.8595,-4.8589,-4.8597,-4.8704,-4.8706,-4.8708,-4.871,0,-4.7871,-4.7876,-4.7948,-4.8025,-4.8085,-4.8145,-4.8202,-4.8245,-4.8256,-4.8317,-4.8406,-4.8459,-4.8565,-4.8649,-4.8728,-4.8759,-4.8737,-4.8737,-4.876,-4.8761,-4.8753,-4.8757,-4.8479,-4.8729,-4.8727,-4.8726,-4.8725,-4.8724,-4.802,-4.8089,-4.8143,-4.8226,-4.8269,-4.8324,-4.8391,-4.8418,-4.8492,-4.8577,-4.8576,-4.8674,-4.873,-4.8833,-4.887,-4.8947,-4.8916,-4.8951,-4.8959,-4.8968,-4.8975,-4.8743,-4.8961,-4.8961,-4.896,-4.896,-4.896,0,-4.8227,-4.8261,-4.8337,-4.8418,-4.8483,-4.8458,-4.8521,-4.8577,-4.8663,-4.8717,-4.8785,-4.8888,-4.8971,-4.9008,-4.9089,-4.9144,-4.9136,-4.9165,-4.916,-4.9168,-4.8998,-4.8969,-4.917,-4.917,-4.917,-4.917,-4.917,-4.917,-4.8342,-4.8457,-4.8469,-4.8606,-4.864,-4.8736,-4.8773,-4.8824,-4.8867,-4.8983,-4.9052,-4.9076,-4.9123,-4.9208,-4.9284,-4.9292,-4.9323,-4.9357,-4.9361,-4.9201,-4.918,-4.9159,-4.9131,-4.9364,-4.9364,-4.9523,-4.9525,-4.9526]},{"header":{"parameterUnit":"m.s-1","parameterCategory":1,"la1":30.2991,"la2":30.254,"lo1":-89.0895,"lo2":-89.0444,"dy":0.0017,"dx":0.0017,"nx":28,"ny":28,"refTime":"2025-08-08T21:00:00:Z","depth":0,"parameterNumber":3,"parameterNumberName":"V-component_of_WINDS"},"data":[0,0,0,0,0,0,0,0,0,0,0,0,0,0,0,0,0,0,0,0,0,0,0,0,0,0,0,0,0,0,0,0,0,0,0,0,0,0,0,0,0,0,0,0,0,0,0,0,0,0,0,0,0,0,0,0,0,0,2.4281,2.4282,0,2.4358,2.4359,2.436,2.4387,2.4386,2.4386,2.4386,2.446,2.4462,2.4464,0,0,0,0,0,0,0,0,0,0,0,0,0,2.4152,2.4155,2.4281,2.4282,2.4283,2.4358,2.4359,2.436,2.4387,2.4386,2.4386,2.4386,2.4459,2.4462,2.4464,0,0,0,0,0,0,0,0,0,0,0,0,0,2.4216,2.4155,2.4281,2.4305,2.4308,2.4357,2.4359,2.436,2.4387,2.4386,2.4386,2.4386,2.4458,2.4461,2.4465,2.4493,0,0,2.4475,2.4476,0,0,0,0,0,0,0,0,2.4213,2.4221,2.4301,2.4304,2.4307,2.4362,2.434,2.4404,2.4387,2.4357,2.4386,2.4385,2.4427,2.4433,2.4448,2.4497,2.45,2.4475,2.4477,2.4479,2.4479,0,0,0,0,0,0,0,2.4208,2.4218,2.4311,2.4302,2.4306,2.4311,2.432,2.4353,2.4393,2.4359,2.4362,2.4371,2.4429,2.4445,2.445,2.4501,2.4475,2.4478,2.448,2.4481,2.4576,2.4576,0,0,0,0,0,0,2.42,2.4214,2.4309,2.4313,2.4258,2.4314,2.4323,2.4345,2.4393,2.44,2.4371,2.4372,2.444,2.4446,2.4453,2.4489,2.4479,2.4482,2.4484,2.4575,2.4576,2.4576,0,0,0,0,0,0,2.4197,2.4209,2.4306,2.4264,2.4277,2.4316,2.434,2.4347,2.4363,2.4402,2.4409,2.438,2.444,2.4448,2.4483,2.4492,2.4483,2.4486,2.4575,2.4575,2.4576,2.4562,0,0,0,0,0,0,2.4194,2.4207,2.422,2.4265,2.4279,2.4336,2.4341,2.4349,2.4369,2.4371,2.4412,2.4419,2.444,2.4478,2.4486,2.4497,2.4489,2.4574,2.4575,2.4576,2.4562,2.4563,2.4563,0,0,0,0,0,2.4189,2.4212,2.422,2.4232,2.4296,2.4337,2.4345,2.437,2.437,2.4382,2.4407,2.4417,2.449,2.4481,2.4491,2.4502,2.4573,2.4575,2.4576,2.4562,2.4563,2.4563,0,0,0,0,0,0,2.4166,2.4218,2.4228,2.4267,2.4297,2.4341,2.4357,2.437,2.44,2.44,2.4428,2.4438,2.447,2.449,2.4479,2.4532,2.4532,2.4535,2.4518,2.4519,2.452,2.4514,2.4492,0,0,0,0,0,2.4166,2.4196,2.4239,2.4269,2.4284,2.4318,2.4337,2.4353,2.4385,2.4398,2.4425,2.4455,2.4484,2.4503,2.4532,2.4565,2.4574,2.4577,2.4578,2.4578,2.458,2.4599,2.46,2.458,2.458,2.458,0,0,2.4165,2.4197,2.4214,2.4265,2.4291,2.432,2.4329,2.4359,2.438,2.4402,2.4437,2.4458,2.4492,2.4527,2.4543,2.4544,2.4588,2.4579,2.4579,2.4582,2.46,2.4602,2.4603,2.4581,2.4581,2.4581,0,0,2.4179,2.4206,2.4234,2.426,2.4299,2.4321,2.4328,2.437,2.4385,2.4421,2.4438,2.4462,2.4513,2.4536,2.4555,2.4577,2.4587,2.4585,2.4587,2.4604,2.4606,2.4608,2.4615,2.4617,2.4587,2.4587,2.4587,0,2.4172,2.4219,2.4246,2.4276,2.4298,2.432,2.4347,2.437,2.4416,2.4429,2.443,2.4493,2.4518,2.4558,2.4563,2.4577,2.4585,2.4581,2.4604,2.4606,2.4608,2.4615,2.4617,2.4587,2.4587,2.4587,2.4587,0,2.4208,2.424,2.4257,2.4303,2.4326,2.4354,2.4385,2.4405,2.4419,2.4441,2.4476,2.4507,2.4542,2.4553,2.4567,2.4594,2.4594,2.4599,2.4599,2.4609,2.4616,2.4619,2.4586,2.4586,2.4586,2.4586,0,0,2.4211,2.4271,2.4277,2.4297,2.4342,2.4366,2.4394,2.443,2.4446,2.4477,2.4501,2.4542,2.4547,2.4568,2.4585,2.46,2.4615,2.4604,2.4605,2.4604,2.4646,2.4642,2.4645,2.4622,2.4623,2.4623,2.4643,0,2.423,2.4284,2.4309,2.4351,2.438,2.4401,2.4426,2.4455,2.4475,2.4501,2.4523,2.4553,2.4557,2.457,2.4586,2.461,2.4624,2.4609,2.4643,2.4644,2.4634,2.4649,2.4645,2.4663,2.4646,2.4647,2.4647,0,2.426,2.4292,2.4337,2.4378,2.4391,2.4413,2.4447,2.4473,2.4505,2.4519,2.4542,2.4558,2.4587,2.4585,2.4625,2.4614,2.463,2.4643,2.4645,2.4649,2.4646,2.4653,2.4669,2.4671,2.4652,2.4652,2.4651,0,2.4257,2.4311,2.4345,2.4362,2.441,2.4425,2.4445,2.4477,2.4497,2.4527,2.454,2.4571,2.4589,2.4613,2.4636,2.4633,2.4673,2.4674,2.4685,2.4684,2.4692,2.4691,2.471,2.4702,2.4702,2.4702,2.4702,0,2.4276,2.4303,2.4344,2.4365,2.4395,2.4423,2.4451,2.4473,2.4501,2.4525,2.4545,2.4567,2.4597,2.4622,2.464,2.467,2.4677,2.4688,2.4693,2.4687,2.4685,2.4697,2.4697,2.4703,2.4703,2.4703,2.4702,0,2.4278,2.4307,2.4345,2.4387,2.4399,2.4419,2.4454,2.4474,2.4496,2.4526,2.4535,2.4568,2.4598,2.4624,2.4664,2.4676,2.4707,2.4712,2.4697,2.4699,2.4708,2.4707,2.4736,2.474,2.4729,2.4729,2.4729,0,2.4288,2.431,2.4354,2.4373,2.4393,2.4422,2.4443,2.447,2.4491,2.4529,2.4544,2.4576,2.4604,2.4651,2.4678,2.4708,2.4714,2.4722,2.4719,2.4712,2.4714,2.4713,2.4715,2.4722,2.4722,2.4722,2.4722,0,2.4304,2.4317,2.4347,2.4381,2.4406,2.4434,2.4462,2.4476,2.4508,2.453,2.4562,2.4583,2.4624,2.4656,2.4689,2.4708,2.472,2.4723,2.4727,2.4721,2.4711,2.4716,2.4697,2.4722,2.4722,2.4722,2.4722,2.4722,2.431,2.433,2.4365,2.4397,2.4421,2.4447,2.4468,2.4493,2.452,2.4557,2.4571,2.4604,2.4634,2.468,2.4699,2.4724,2.4726,2.4732,2.4733,2.4734,2.4733,2.4707,2.473,2.473,2.473,2.473,2.473,0,2.4327,2.435,2.4379,2.4419,2.4444,2.4455,2.4486,2.4506,2.4535,2.4563,2.459,2.4626,2.4657,2.4685,2.4717,2.4731,2.4737,2.4738,2.4737,2.4741,2.473,2.4724,2.4733,2.4733,2.4733,2.4733,2.4733,2.4733,2.4338,2.4372,2.4389,2.4434,2.4457,2.449,2.4507,2.4531,2.4554,2.4594,2.462,2.4639,2.4667,2.47,2.4728,2.4735,2.4746,2.4745,2.4754,2.4743,2.4742,2.4742,2.4736,2.4747,2.4747,2.4763,2.4763,2.4764]}]]